| time (UTC) | temp F | wind direction | speed MPH | gust MPH | rain 1hr in | rain 24hr in | rain mn in | humidity % | barometer mb |
| 20260502130722 | 63 | 253 | 1.0 | 9.0 | 0.00 | 0.00 | 0.00 | 20 | 1018.2 |
| 20260502123726 | 63 | 278 | 0.0 | 0.0 | 0.00 | 0.00 | 0.00 | 19 | 1017.8 |
| 20260502123214 | 63 | 286 | 0.0 | 3.0 | 0.00 | 0.00 | 0.00 | 19 | 1017.7 |
| 20260502122723 | 63 | 269 | 0.0 | 6.0 | 0.00 | 0.00 | 0.00 | 19 | 1017.6 |
| 20260502122231 | 64 | 267 | 1.0 | 3.0 | 0.00 | 0.00 | 0.00 | 19 | 1017.6 |
| 20260502121740 | 64 | 267 | 0.0 | 0.0 | 0.00 | 0.00 | 0.00 | 19 | 1017.5 |
| 20260502121229 | 64 | 267 | 0.0 | 0.0 | 0.00 | 0.00 | 0.00 | 19 | 1017.5 |
| 20260502120717 | 64 | 271 | 0.0 | 0.0 | 0.00 | 0.00 | 0.00 | 18 | 1017.4 |
| 20260502120246 | 64 | 271 | 0.0 | 0.0 | 0.00 | 0.00 | 0.00 | 19 | 1017.3 |
| 20260502115715 | 64 | 271 | 0.0 | 1.0 | 0.00 | 0.00 | 0.00 | 18 | 1017.3 |
| 20260502115223 | 64 | 269 | 0.0 | 1.0 | 0.00 | 0.00 | 0.00 | 18 | 1017.2 |
| 20260502114730 | 64 | 278 | 0.0 | 1.0 | 0.00 | 0.00 | 0.00 | 18 | 1017.2 |
| 20260502113733 | 64 | 252 | 0.0 | 0.0 | 0.00 | 0.00 | 0.00 | 18 | 1017.3 |
| 20260502113220 | 64 | 277 | 0.0 | 0.0 | 0.00 | 0.00 | 0.00 | 18 | 1017.3 |
| 20260502112730 | 64 | 285 | 0.0 | 0.0 | 0.00 | 0.00 | 0.00 | 18 | 1017.2 |
| 20260502112216 | 64 | 317 | 0.0 | 1.0 | 0.00 | 0.00 | 0.00 | 18 | 1017.2 |
| 20260502111727 | 65 | 317 | 0.0 | 1.0 | 0.00 | 0.00 | 0.00 | 18 | 1017.2 |
| 20260502111218 | 65 | 260 | 0.0 | 0.0 | 0.00 | 0.00 | 0.00 | 18 | 1017.3 |
| 20260502110726 | 65 | 245 | 0.0 | 0.0 | 0.00 | 0.00 | 0.00 | 18 | 1017.3 |
| 20260502110214 | 65 | 256 | 0.0 | 1.0 | 0.00 | 0.00 | 0.00 | 18 | 1017.3 |
| 20260502105744 | 65 | 256 | 0.0 | 1.0 | 0.00 | 0.00 | 0.00 | 18 | 1017.3 |
| 20260502105251 | 65 | 284 | 0.0 | 0.0 | 0.00 | 0.00 | 0.00 | 18 | 1017.2 |
| 20260502104719 | 65 | 271 | 0.0 | 1.0 | 0.00 | 0.00 | 0.00 | 17 | 1017.3 |
| 20260502104213 | 65 | 295 | 0.0 | 1.0 | 0.00 | 0.00 | 0.00 | 17 | 1017.2 |
| 20260502103722 | 66 | 295 | 0.0 | 0.0 | 0.00 | 0.00 | 0.00 | 17 | 1017.2 |
| 20260502103251 | 66 | 236 | 0.0 | 1.0 | 0.00 | 0.00 | 0.00 | 17 | 1017.2 |
| 20260502102720 | 66 | 235 | 0.0 | 1.0 | 0.00 | 0.00 | 0.00 | 17 | 1017.2 |
| 20260502102227 | 66 | 261 | 0.0 | 1.0 | 0.00 | 0.00 | 0.00 | 17 | 1017.1 |
| 20260502101715 | 66 | 269 | 0.0 | 0.0 | 0.00 | 0.00 | 0.00 | 17 | 1017.1 |
| 20260502100720 | 66 | 277 | 0.0 | 0.0 | 0.00 | 0.00 | 0.00 | 16 | 1017.1 |
| 20260502100229 | 66 | 266 | 0.0 | 8.0 | 0.00 | 0.00 | 0.00 | 17 | 1017.2 |
| 20260502091215 | 65 | 291 | 0.0 | 0.0 | 0.00 | 0.00 | 0.00 | 18 | 1017.1 |
| 20260502090723 | 65 | 281 | 0.0 | 0.0 | 0.00 | 0.00 | 0.00 | 18 | 1017.2 |
| 20260502090232 | 65 | 284 | 0.0 | 0.0 | 0.00 | 0.00 | 0.00 | 17 | 1017.2 |
| 20260502071216 | 63 | 259 | 0.0 | 0.0 | 0.00 | 0.00 | 0.00 | 19 | 1017.2 |
| 20260502070746 | 62 | 259 | 0.0 | 0.0 | 0.00 | 0.00 | 0.00 | 19 | 1017.1 |
| 20260502070254 | 61 | 259 | 0.0 | 0.0 | 0.00 | 0.00 | 0.00 | 20 | 1017.1 |
| 20260502065722 | 59 | 291 | 0.0 | 0.0 | 0.00 | 0.00 | 0.00 | 21 | 1017.1 |
| 20260502065250 | 58 | 285 | 0.0 | 0.0 | 0.00 | 0.00 | 0.00 | 23 | 1017.0 |
| 20260502064738 | 58 | 323 | 0.0 | 0.0 | 0.00 | 0.00 | 0.00 | 25 | 1017.0 |
| 20260502064227 | 58 | 323 | 0.0 | 0.0 | 0.00 | 0.00 | 0.00 | 26 | 1016.9 |
| 20260502063716 | 58 | 323 | 0.0 | 0.0 | 0.00 | 0.00 | 0.00 | 27 | 1016.8 |
| 20260502063228 | 58 | 323 | 0.0 | 0.0 | 0.00 | 0.00 | 0.00 | 24 | 1016.8 |
| 20260502062739 | 58 | 323 | 0.0 | 0.0 | 0.00 | 0.00 | 0.00 | 25 | 1016.8 |
| 20260502062225 | 58 | 325 | 0.0 | 0.0 | 0.00 | 0.00 | 0.00 | 24 | 1016.8 |
| 20260502061713 | 58 | 326 | 0.0 | 0.0 | 0.00 | 0.00 | 0.00 | 26 | 1016.7 |
| 20260502061223 | 58 | 326 | 0.0 | 0.0 | 0.00 | 0.00 | 0.00 | 25 | 1016.7 |
| 20260502060731 | 58 | 326 | 0.0 | 0.0 | 0.00 | 0.00 | 0.00 | 25 | 1016.7 |
| 20260502060220 | 58 | 326 | 0.0 | 0.0 | 0.00 | 0.00 | 0.00 | 25 | 1016.6 |
| 20260502055226 | 58 | 326 | 0.0 | 0.0 | 0.00 | 0.00 | 0.00 | 24 | 1016.5 |
| 20260502054713 | 59 | 326 | 0.0 | 0.0 | 0.00 | 0.00 | 0.00 | 25 | 1016.5 |
| 20260502054223 | 59 | 326 | 0.0 | 0.0 | 0.00 | 0.00 | 0.00 | 23 | 1016.5 |
| 20260502053715 | 59 | 326 | 0.0 | 0.0 | 0.00 | 0.00 | 0.00 | 25 | 1016.5 |
| 20260502053224 | 59 | 326 | 0.0 | 0.0 | 0.00 | 0.00 | 0.00 | 23 | 1016.5 |
| 20260502052714 | 59 | 326 | 0.0 | 0.0 | 0.00 | 0.00 | 0.00 | 24 | 1016.5 |
| 20260502052223 | 60 | 326 | 0.0 | 0.0 | 0.00 | 0.00 | 0.00 | 25 | 1016.4 |
| 20260502051731 | 60 | 326 | 0.0 | 0.0 | 0.00 | 0.00 | 0.00 | 23 | 1016.4 |
| 20260502051222 | 59 | 326 | 0.0 | 0.0 | 0.00 | 0.00 | 0.00 | 23 | 1016.3 |
| 20260502050731 | 59 | 326 | 0.0 | 0.0 | 0.00 | 0.00 | 0.00 | 22 | 1016.3 |
| 20260502050220 | 58 | 326 | 0.0 | 0.0 | 0.00 | 0.00 | 0.00 | 24 | 1016.3 |
| 20260502045727 | 58 | 327 | 0.0 | 0.0 | 0.00 | 0.00 | 0.00 | 26 | 1016.2 |
| 20260502045214 | 58 | 327 | 0.0 | 0.0 | 0.00 | 0.00 | 0.00 | 24 | 1016.2 |
| 20260502044726 | 57 | 21 | 0.0 | 0.0 | 0.00 | 0.00 | 0.00 | 26 | 1016.1 |
| 20260502044215 | 57 | 22 | 0.0 | 0.0 | 0.00 | 0.00 | 0.00 | 29 | 1016.0 |
| 20260502043724 | 58 | 22 | 0.0 | 0.0 | 0.00 | 0.00 | 0.00 | 27 | 1015.9 |
| 20260502043213 | 58 | 22 | 0.0 | 0.0 | 0.00 | 0.00 | 0.00 | 28 | 1015.9 |
| 20260502042722 | 59 | 22 | 0.0 | 0.0 | 0.00 | 0.00 | 0.00 | 29 | 1015.9 |
| 20260502042231 | 60 | 22 | 0.0 | 0.0 | 0.00 | 0.00 | 0.00 | 29 | 1015.8 |
| 20260502041720 | 60 | 22 | 0.0 | 0.0 | 0.00 | 0.00 | 0.00 | 28 | 1015.6 |
| 20260502041230 | 61 | 22 | 0.0 | 0.0 | 0.00 | 0.00 | 0.00 | 27 | 1015.6 |
| 20260502040717 | 62 | 22 | 0.0 | 0.0 | 0.00 | 0.00 | 0.00 | 27 | 1015.5 |
| 20260502040223 | 63 | 22 | 0.0 | 0.0 | 0.00 | 0.00 | 0.00 | 26 | 1015.5 |
| 20260502035737 | 64 | 22 | 0.0 | 0.0 | 0.00 | 0.00 | 0.00 | 25 | 1015.3 |
| 20260502035224 | 66 | 22 | 0.0 | 0.0 | 0.00 | 0.00 | 0.00 | 24 | 1015.3 |
| 20260502034732 | 67 | 22 | 0.0 | 0.0 | 0.00 | 0.00 | 0.00 | 23 | 1015.2 |
| 20260502034221 | 69 | 22 | 0.0 | 0.0 | 0.00 | 0.00 | 0.00 | 21 | 1015.1 |
| 20260502033729 | 69 | 22 | 0.0 | 0.0 | 0.00 | 0.00 | 0.00 | 19 | 1015.0 |
| 20260502033217 | 71 | 22 | 0.0 | 0.0 | 0.00 | 0.00 | 0.00 | 17 | 1014.9 |
| 20260502032728 | 72 | 22 | 0.0 | 0.0 | 0.00 | 0.00 | 0.00 | 17 | 1014.8 |
| 20260502032214 | 72 | 22 | 0.0 | 0.0 | 0.00 | 0.00 | 0.00 | 15 | 1014.7 |
| 20260502031723 | 73 | 22 | 0.0 | 0.0 | 0.00 | 0.00 | 0.00 | 12 | 1014.6 |
| 20260502031232 | 74 | 22 | 0.0 | 0.0 | 0.00 | 0.00 | 0.00 | 12 | 1014.5 |
| 20260502030719 | 75 | 355 | 0.0 | 0.0 | 0.00 | 0.00 | 0.00 | 13 | 1014.3 |
| 20260502030225 | 76 | 355 | 0.0 | 0.0 | 0.00 | 0.00 | 0.00 | 14 | 1014.1 |
| 20260502025717 | 76 | 360 | 0.0 | 0.0 | 0.00 | 0.00 | 0.00 | 12 | 1014.1 |
| 20260502025223 | 77 | 360 | 0.0 | 0.0 | 0.00 | 0.00 | 0.00 | 12 | 1014.1 |
| 20260502024729 | 78 | 360 | 0.0 | 0.0 | 0.00 | 0.00 | 0.00 | 11 | 1013.9 |
| 20260502024218 | 78 | 360 | 0.0 | 0.0 | 0.00 | 0.00 | 0.00 | 11 | 1013.9 |
| 20260502023726 | 79 | 27 | 0.0 | 0.0 | 0.00 | 0.00 | 0.00 | 10 | 1013.8 |
| 20260502023213 | 79 | 28 | 0.0 | 0.0 | 0.00 | 0.00 | 0.00 | 9 | 1013.8 |
| 20260502022723 | 80 | 28 | 0.0 | 0.0 | 0.00 | 0.00 | 0.00 | 9 | 1013.8 |
| 20260502022212 | 80 | 28 | 0.0 | 0.0 | 0.00 | 0.00 | 0.00 | 9 | 1013.8 |
| 20260502021720 | 81 | 11 | 0.0 | 0.0 | 0.00 | 0.00 | 0.00 | 9 | 1013.7 |
| 20260502021229 | 81 | 5 | 0.0 | 0.0 | 0.00 | 0.00 | 0.00 | 9 | 1013.7 |
| 20260502020721 | 81 | 20 | 0.0 | 0.0 | 0.00 | 0.00 | 0.00 | 9 | 1013.6 |
| 20260502020229 | 81 | 15 | 0.0 | 2.0 | 0.00 | 0.00 | 0.00 | 9 | 1013.6 |
| 20260502015717 | 82 | 20 | 0.0 | 2.0 | 0.00 | 0.00 | 0.00 | 9 | 1013.5 |
| 20260502015224 | 82 | 336 | 0.0 | 10.0 | 0.00 | 0.00 | 0.00 | 10 | 1013.5 |
| 20260502014732 | 82 | 336 | 0.0 | 10.0 | 0.00 | 0.00 | 0.00 | 9 | 1013.4 |
| 20260502014219 | 82 | 15 | 0.0 | 8.0 | 0.00 | 0.00 | 0.00 | 9 | 1013.4 |
| 20260502013747 | 83 | 5 | 1.0 | 4.0 | 0.00 | 0.00 | 0.00 | 10 | 1013.4 |
| 20260502013213 | 83 | 355 | 0.0 | 3.0 | 0.00 | 0.00 | 0.00 | 10 | 1013.3 |
| 20260502012721 | 83 | 15 | 0.0 | 3.0 | 0.00 | 0.00 | 0.00 | 9 | 1013.4 |
| 20260502012229 | 83 | 17 | 0.0 | 7.0 | 0.00 | 0.00 | 0.00 | 10 | 1013.3 |
| 20260502011716 | 84 | 26 | 2.0 | 5.0 | 0.00 | 0.00 | 0.00 | 9 | 1013.3 |
| 20260502011247 | 84 | 333 | 1.0 | 5.0 | 0.00 | 0.00 | 0.00 | 9 | 1013.3 |
| 20260502010719 | 84 | 25 | 0.0 | 0.0 | 0.00 | 0.00 | 0.00 | 10 | 1013.3 |
| 20260502010226 | 84 | 293 | 0.0 | 10.0 | 0.00 | 0.00 | 0.00 | 11 | 1013.3 |
| 20260502005715 | 83 | 20 | 2.0 | 11.0 | 0.00 | 0.00 | 0.00 | 11 | 1013.4 |
| 20260502005223 | 84 | 21 | 1.0 | 11.0 | 0.00 | 0.00 | 0.00 | 9 | 1013.3 |
| 20260502004731 | 84 | 5 | 0.0 | 13.0 | 0.00 | 0.00 | 0.00 | 10 | 1013.3 |
| 20260502004221 | 84 | 18 | 5.0 | 13.0 | 0.00 | 0.00 | 0.00 | 9 | 1013.3 |
| 20260502003728 | 84 | 41 | 0.0 | 11.0 | 0.00 | 0.00 | 0.00 | 10 | 1013.3 |
| 20260502003218 | 84 | 15 | 5.0 | 11.0 | 0.00 | 0.00 | 0.00 | 9 | 1013.3 |
| 20260502002729 | 85 | 26 | 4.0 | 11.0 | 0.00 | 0.00 | 0.00 | 10 | 1013.4 |
| 20260502002222 | 85 | 350 | 0.0 | 10.0 | 0.00 | 0.00 | 0.00 | 10 | 1013.3 |
| 20260502001227 | 85 | 78 | 0.0 | 0.0 | 0.00 | 0.00 | 0.00 | 10 | 1013.4 |
| 20260502000716 | 85 | 82 | 0.0 | 1.0 | 0.00 | 0.00 | 0.00 | 10 | 1013.4 |
| 20260502000247 | 85 | 81 | 0.0 | 11.0 | 0.00 | 0.00 | 0.00 | 11 | 1013.4 |
| 20260501235714 | 85 | 46 | 3.0 | 11.0 | 0.00 | 0.00 | 0.00 | 10 | 1013.5 |
| 20260501235223 | 85 | 38 | 0.0 | 10.0 | 0.00 | 0.00 | 0.00 | 11 | 1013.5 |
| 20260501234732 | 85 | 282 | 6.0 | 12.0 | 0.00 | 0.00 | 0.00 | 10 | 1013.5 |
| 20260501233716 | 85 | 51 | 1.0 | 10.0 | 0.00 | 0.00 | 0.00 | 10 | 1013.4 |
| 20260501233224 | 85 | 338 | 0.0 | 2.0 | 0.00 | 0.00 | 0.00 | 11 | 1013.3 |
| 20260501232732 | 85 | 297 | 0.0 | 1.0 | 0.00 | 0.00 | 0.00 | 11 | 1013.4 |
| 20260501232219 | 85 | 311 | 0.0 | 5.0 | 0.00 | 0.00 | 0.00 | 11 | 1013.4 |
| 20260501231727 | 85 | 52 | 0.0 | 10.0 | 0.00 | 0.00 | 0.00 | 10 | 1013.5 |
| 20260501231219 | 86 | 78 | 0.0 | 2.0 | 0.00 | 0.00 | 0.00 | 10 | 1013.5 |
| 20260501230725 | 86 | 32 | 0.0 | 1.0 | 0.00 | 0.00 | 0.00 | 12 | 1013.5 |
| 20260501230214 | 85 | 277 | 0.0 | 1.0 | 0.00 | 0.00 | 0.00 | 14 | 1013.5 |
| 20260501225723 | 85 | 258 | 0.0 | 8.0 | 0.00 | 0.00 | 0.00 | 10 | 1013.6 |
| 20260501225251 | 86 | 302 | 0.0 | 10.0 | 0.00 | 0.00 | 0.00 | 11 | 1013.7 |
| 20260501224717 | 85 | 360 | 2.0 | 10.0 | 0.00 | 0.00 | 0.00 | 10 | 1013.7 |
| 20260501224227 | 85 | 273 | 2.0 | 10.0 | 0.00 | 0.00 | 0.00 | 10 | 1013.7 |
| 20260501223715 | 85 | 323 | 0.0 | 8.0 | 0.00 | 0.00 | 0.00 | 13 | 1013.8 |
| 20260501223223 | 85 | 274 | 0.0 | 13.0 | 0.00 | 0.00 | 0.00 | 11 | 1013.8 |
| 20260501222733 | 85 | 305 | 3.0 | 13.0 | 0.00 | 0.00 | 0.00 | 11 | 1013.8 |
| 20260501222220 | 85 | 22 | 2.0 | 12.0 | 0.00 | 0.00 | 0.00 | 12 | 1013.9 |
| 20260501221713 | 84 | 259 | 0.0 | 8.0 | 0.00 | 0.00 | 0.00 | 14 | 1014.0 |
| 20260501221223 | 84 | 317 | 1.0 | 8.0 | 0.00 | 0.00 | 0.00 | 12 | 1014.1 |
| 20260501220731 | 83 | 323 | 0.0 | 5.0 | 0.00 | 0.00 | 0.00 | 14 | 1014.2 |
| 20260501220220 | 83 | 330 | 1.0 | 14.0 | 0.00 | 0.00 | 0.00 | 12 | 1014.2 |
| 20260501215730 | 83 | 345 | 3.0 | 14.0 | 0.00 | 0.00 | 0.00 | 12 | 1014.2 |
| 20260501215217 | 84 | 355 | 0.0 | 10.0 | 0.00 | 0.00 | 0.00 | 12 | 1014.3 |
| 20260501214725 | 84 | 288 | 3.0 | 10.0 | 0.00 | 0.00 | 0.00 | 12 | 1014.4 |
| 20260501214214 | 84 | 30 | 1.0 | 12.0 | 0.00 | 0.00 | 0.00 | 13 | 1014.5 |
| 20260501213722 | 84 | 27 | 3.0 | 12.0 | 0.00 | 0.00 | 0.00 | 12 | 1014.6 |
| 20260501213214 | 83 | 348 | 3.0 | 8.0 | 0.00 | 0.00 | 0.00 | 14 | 1014.6 |
| 20260501212221 | 83 | 59 | 0.0 | 11.0 | 0.00 | 0.00 | 0.00 | 11 | 1014.7 |
| 20260501211730 | 84 | 53 | 0.0 | 11.0 | 0.00 | 0.00 | 0.00 | 11 | 1014.8 |
| 20260501211220 | 84 | 5 | 0.0 | 1.0 | 0.00 | 0.00 | 0.00 | 14 | 1014.9 |
| 20260501210730 | 84 | 322 | 0.0 | 0.0 | 0.00 | 0.00 | 0.00 | 13 | 1015.0 |
| 20260501210218 | 83 | 48 | 0.0 | 0.0 | 0.00 | 0.00 | 0.00 | 12 | 1015.0 |
| 20260501205727 | 83 | 38 | 0.0 | 11.0 | 0.00 | 0.00 | 0.00 | 11 | 1015.0 |
| 20260501205215 | 83 | 15 | 1.0 | 11.0 | 0.00 | 0.00 | 0.00 | 11 | 1015.1 |
| 20260501204723 | 84 | 61 | 2.0 | 11.0 | 0.00 | 0.00 | 0.00 | 13 | 1015.2 |
| 20260501204213 | 83 | 38 | 2.0 | 11.0 | 0.00 | 0.00 | 0.00 | 13 | 1015.2 |
| 20260501203725 | 83 | 45 | 1.0 | 11.0 | 0.00 | 0.00 | 0.00 | 12 | 1015.2 |
| 20260501203214 | 84 | 12 | 0.0 | 10.0 | 0.00 | 0.00 | 0.00 | 12 | 1015.3 |
| 20260501202723 | 84 | 21 | 2.0 | 13.0 | 0.00 | 0.00 | 0.00 | 14 | 1015.4 |
| 20260501202231 | 83 | 5 | 1.0 | 13.0 | 0.00 | 0.00 | 0.00 | 11 | 1015.4 |
| 20260501201721 | 84 | 59 | 0.0 | 14.0 | 0.00 | 0.00 | 0.00 | 12 | 1015.4 |
| 20260501201230 | 84 | 41 | 5.0 | 14.0 | 0.00 | 0.00 | 0.00 | 12 | 1015.5 |
| 20260501200719 | 83 | 290 | 1.0 | 12.0 | 0.00 | 0.00 | 0.00 | 14 | 1015.6 |
| 20260501195723 | 83 | 27 | 0.0 | 12.0 | 0.00 | 0.00 | 0.00 | 12 | 1015.6 |
| 20260501195231 | 83 | 26 | 1.0 | 14.0 | 0.00 | 0.00 | 0.00 | 13 | 1015.8 |
| 20260501194717 | 83 | 43 | 2.0 | 14.0 | 0.00 | 0.00 | 0.00 | 12 | 1015.9 |
| 20260501194247 | 83 | 49 | 0.0 | 10.0 | 0.00 | 0.00 | 0.00 | 13 | 1015.9 |
| 20260501193718 | 83 | 265 | 1.0 | 9.0 | 0.00 | 0.00 | 0.00 | 13 | 1016.0 |
| 20260501193226 | 83 | 341 | 0.0 | 7.0 | 0.00 | 0.00 | 0.00 | 12 | 1016.1 |
| 20260501192734 | 83 | 288 | 1.0 | 14.0 | 0.00 | 0.00 | 0.00 | 14 | 1016.1 |
| 20260501192221 | 82 | 335 | 2.0 | 14.0 | 0.00 | 0.00 | 0.00 | 13 | 1016.2 |
| 20260501191730 | 82 | 18 | 1.0 | 15.0 | 0.00 | 0.00 | 0.00 | 12 | 1016.1 |
| 20260501191221 | 82 | 40 | 1.0 | 15.0 | 0.00 | 0.00 | 0.00 | 13 | 1016.3 |
| 20260501190730 | 82 | 23 | 1.0 | 11.0 | 0.00 | 0.00 | 0.00 | 13 | 1016.4 |
| 20260501190219 | 82 | 25 | 2.0 | 13.0 | 0.00 | 0.00 | 0.00 | 12 | 1016.5 |
| 20260501185729 | 82 | 28 | 3.0 | 13.0 | 0.00 | 0.00 | 0.00 | 12 | 1016.6 |
| 20260501185216 | 82 | 9 | 3.0 | 12.0 | 0.00 | 0.00 | 0.00 | 13 | 1016.6 |
| 20260501184727 | 82 | 47 | 0.0 | 13.0 | 0.00 | 0.00 | 0.00 | 14 | 1016.7 |
| 20260501184217 | 82 | 30 | 1.0 | 12.0 | 0.00 | 0.00 | 0.00 | 12 | 1016.8 |
| 20260501183725 | 82 | 281 | 4.0 | 11.0 | 0.00 | 0.00 | 0.00 | 13 | 1016.8 |
| 20260501183231 | 81 | 355 | 0.0 | 14.0 | 0.00 | 0.00 | 0.00 | 13 | 1016.9 |
| 20260501182719 | 82 | 323 | 5.0 | 14.0 | 0.00 | 0.00 | 0.00 | 13 | 1016.9 |
| 20260501182226 | 81 | 335 | 0.0 | 11.0 | 0.00 | 0.00 | 0.00 | 15 | 1017.0 |
| 20260501181713 | 81 | 340 | 0.0 | 13.0 | 0.00 | 0.00 | 0.00 | 14 | 1016.9 |
| 20260501181223 | 81 | 355 | 4.0 | 13.0 | 0.00 | 0.00 | 0.00 | 13 | 1017.0 |
| 20260501180751 | 81 | 323 | 2.0 | 11.0 | 0.00 | 0.00 | 0.00 | 15 | 1017.0 |
| 20260501180217 | 81 | 313 | 1.0 | 4.0 | 0.00 | 0.00 | 0.00 | 13 | 1017.0 |
| 20260501175725 | 81 | 39 | 0.0 | 8.0 | 0.00 | 0.00 | 0.00 | 13 | 1017.1 |
| 20260501175216 | 80 | 351 | 0.0 | 11.0 | 0.00 | 0.00 | 0.00 | 13 | 1017.1 |
| 20260501174724 | 80 | 345 | 2.0 | 11.0 | 0.00 | 0.00 | 0.00 | 14 | 1017.0 |
| 20260501174213 | 80 | 342 | 1.0 | 9.0 | 0.00 | 0.00 | 0.00 | 13 | 1017.1 |
| 20260501173721 | 80 | 34 | 0.0 | 2.0 | 0.00 | 0.00 | 0.00 | 14 | 1017.1 |
| 20260501173230 | 80 | 5 | 0.0 | 7.0 | 0.00 | 0.00 | 0.00 | 14 | 1017.1 |
| 20260501172718 | 80 | 11 | 0.0 | 7.0 | 0.00 | 0.00 | 0.00 | 15 | 1017.2 |
| 20260501172226 | 79 | 11 | 1.0 | 6.0 | 0.00 | 0.00 | 0.00 | 13 | 1017.2 |
| 20260501171715 | 79 | 332 | 0.0 | 12.0 | 0.00 | 0.00 | 0.00 | 15 | 1017.2 |
| 20260501170719 | 79 | 286 | 3.0 | 9.0 | 0.00 | 0.00 | 0.00 | 15 | 1017.2 |
| 20260501170226 | 79 | 325 | 1.0 | 5.0 | 0.00 | 0.00 | 0.00 | 14 | 1017.2 |
| 20260501165719 | 79 | 22 | 0.0 | 11.0 | 0.00 | 0.00 | 0.00 | 15 | 1017.2 |
| 20260501165225 | 79 | 355 | 0.0 | 3.0 | 0.00 | 0.00 | 0.00 | 15 | 1017.3 |
| 20260501164732 | 78 | 22 | 0.0 | 10.0 | 0.00 | 0.00 | 0.00 | 15 | 1017.2 |
| 20260501164222 | 78 | 349 | 1.0 | 10.0 | 0.00 | 0.00 | 0.00 | 14 | 1017.3 |
| 20260501163729 | 78 | 319 | 0.0 | 9.0 | 0.00 | 0.00 | 0.00 | 15 | 1017.2 |
| 20260501163216 | 78 | 319 | 2.0 | 9.0 | 0.00 | 0.00 | 0.00 | 15 | 1017.2 |
| 20260501162727 | 78 | 315 | 0.0 | 9.0 | 0.00 | 0.00 | 0.00 | 15 | 1017.2 |
| 20260501162215 | 78 | 326 | 1.0 | 13.0 | 0.00 | 0.00 | 0.00 | 14 | 1017.2 |
| 20260501161724 | 78 | 321 | 1.0 | 13.0 | 0.00 | 0.00 | 0.00 | 15 | 1017.2 |
| 20260501161233 | 78 | 20 | 1.0 | 12.0 | 0.00 | 0.00 | 0.00 | 16 | 1017.2 |
| 20260501160720 | 77 | 355 | 1.0 | 11.0 | 0.00 | 0.00 | 0.00 | 16 | 1017.2 |
| 20260501160232 | 77 | 327 | 1.0 | 11.0 | 0.00 | 0.00 | 0.00 | 15 | 1017.2 |
| 20260501155721 | 77 | 340 | 0.0 | 4.0 | 0.00 | 0.00 | 0.00 | 17 | 1017.1 |
| 20260501155228 | 76 | 5 | 0.0 | 4.0 | 0.00 | 0.00 | 0.00 | 16 | 1017.1 |
| 20260501154716 | 76 | 13 | 0.0 | 6.0 | 0.00 | 0.00 | 0.00 | 16 | 1017.1 |
| 20260501154227 | 76 | 321 | 1.0 | 6.0 | 0.00 | 0.00 | 0.00 | 16 | 1017.1 |
| 20260501153715 | 75 | 336 | 0.0 | 15.0 | 0.00 | 0.00 | 0.00 | 17 | 1017.0 |
| 20260501153224 | 75 | 310 | 2.0 | 15.0 | 0.00 | 0.00 | 0.00 | 16 | 1016.9 |
| 20260501152713 | 74 | 338 | 0.0 | 8.0 | 0.00 | 0.00 | 0.00 | 18 | 1016.9 |
| 20260501152222 | 74 | 332 | 0.0 | 4.0 | 0.00 | 0.00 | 0.00 | 19 | 1016.9 |
| 20260501151713 | 73 | 18 | 0.0 | 5.0 | 0.00 | 0.00 | 0.00 | 17 | 1017.0 |
| 20260501150716 | 72 | 314 | 0.0 | 9.0 | 0.00 | 0.00 | 0.00 | 18 | 1016.9 |
| 20260501150224 | 72 | 283 | 1.0 | 4.0 | 0.00 | 0.00 | 0.00 | 19 | 1016.9 |
| 20260501145713 | 72 | 302 | 0.0 | 4.0 | 0.00 | 0.00 | 0.00 | 18 | 1017.0 |
| 20260501145221 | 71 | 299 | 0.0 | 1.0 | 0.00 | 0.00 | 0.00 | 20 | 1016.9 |
| 20260501144750 | 70 | 238 | 0.0 | 4.0 | 0.00 | 0.00 | 0.00 | 25 | 1016.9 |
| 20260501144217 | 70 | 348 | 0.0 | 6.0 | 0.00 | 0.00 | 0.00 | 21 | 1016.9 |
| 20260501143748 | 69 | 314 | 0.0 | 0.0 | 0.00 | 0.00 | 0.00 | 20 | 1016.8 |
| 20260501143233 | 69 | 289 | 0.0 | 4.0 | 0.00 | 0.00 | 0.00 | 23 | 1016.8 |
| 20260501142721 | 68 | 323 | 0.0 | 8.0 | 0.00 | 0.00 | 0.00 | 24 | 1016.7 |
| 20260501141724 | 67 | 254 | 0.0 | 1.0 | 0.00 | 0.00 | 0.00 | 23 | 1016.5 |
| 20260501141214 | 67 | 250 | 0.0 | 1.0 | 0.00 | 0.00 | 0.00 | 24 | 1016.4 |
| 20260501140743 | 67 | 257 | 0.0 | 1.0 | 0.00 | 0.00 | 0.00 | 24 | 1016.4 |
| 20260501140230 | 66 | 234 | 0.0 | 7.0 | 0.00 | 0.00 | 0.00 | 25 | 1016.3 |
| 20260501135718 | 65 | 269 | 0.0 | 7.0 | 0.00 | 0.00 | 0.00 | 24 | 1016.3 |
| 20260501135225 | 65 | 246 | 0.0 | 4.0 | 0.00 | 0.00 | 0.00 | 25 | 1016.2 |
| 20260501134714 | 65 | 254 | 0.0 | 4.0 | 0.00 | 0.00 | 0.00 | 25 | 1016.2 |
| 20260501134225 | 65 | 277 | 0.0 | 0.0 | 0.00 | 0.00 | 0.00 | 25 | 1016.2 |
| 20260501133717 | 65 | 250 | 0.0 | 3.0 | 0.00 | 0.00 | 0.00 | 25 | 1016.1 |